Regional Weather Roundup
Issued by NWS Jackson, KY

Home | Current Version | Previous Version | Text Only | Print | Product List | Glossary Off
Versions: 1 2 3 4 5 6 7 8 9 10 11 12 13 14 15 16 17 18 19 20 21 22 23 24 25 26 27 28 29 30 31 32 33 34 35 36 37 38 39 40 41 42 43 44 45 46 47 48 49 50

000
ASUS43 KJKL 301910
RWRJKL

EAST KENTUCKY HOURLY WEATHER ROUNDUP
NATIONAL WEATHER SERVICE JACKSON KY
300 PM EDT TUE JUN 30 2015

NOTE: "FAIR" INDICATES FEW OR NO CLOUDS BELOW 12,000 FEET WITH
NO SIGNIFICANT WEATHER AND/OR OBSTRUCTIONS TO VISIBILITY.

* THESE REPORTS ARE NOT UNDER NWS QUALITY CONTROL AND MAY NOT
  REPORT WEATHER SUCH AS PRECIPITATION AND FOG.

KYZ079-080-083-085-087-088-110-112-115-119-120-302000
...EASTERN KENTUCKY...

CITY           SKY/WX    TMP DP  RH WIND       PRES   REMARKS
JACKSON        PTSUNNY   76  66  71 CALM      29.90F
LONDON         LGT RAIN  75  65  70 W5        29.90F
SOMERSET*      TSTM      73  68  83 W12       29.91F
MONTICELLO*    PTSUNNY   70  68  93 SW6       29.95S
MIDDLESBORO*   PTSUNNY   82  68  64 S8        29.91F
HARLAN APT*      N/A     81  64  57 CALM      29.92F
BLACK MTN*       N/A     70  63  78 W1          N/A
PIKEVILLE APT* MOSUNNY   79  64  61 SW7       29.91F
BIG SANDY*     CLOUDY    79  66  64 W6        29.90F
MOREHEAD APT*  PTCLDY    79  66  65 SW8G14    29.90F
$$

KYZ035-036-041-042-044-050-067-078-099-302000
...CENTRAL KENTUCKY...

CITY           SKY/WX    TMP DP  RH WIND       PRES   REMARKS
MT STERLING*   MOSUNNY   79  68  69 SW13      29.88F
FLEMING/MASON* PTSUNNY   81  68  65 SW12G20   29.86F
DANVILLE*      PTSUNNY   81  63  54 SW13      29.90F
RICHMOND*      PTSUNNY   77  66  69 SW9       29.88F
LEXINGTON      PTSUNNY   82  66  58 SW12      29.87F
FRANKFORT      MOSUNNY   82  66  58 SW12      29.84F
$$

KYZ091>093-OHZ055-061-077-WVZ005-015-034-035-042-302000
...SOUTHERN OHIO/WEST VIRGINIA...

CITY           SKY/WX    TMP DP  RH WIND       PRES   REMARKS
COVINGTON      TSTM      65  61  87 SW10      29.84F
COLUMBUS       CLOUDY    70  65  84 SW12G17   29.81S
DAYTON         CLOUDY    76  63  64 W17       29.82F
WILMINGTON     CLOUDY    68  61  78 S10       29.84F THUNDER
HUNTINGTON     MOSUNNY   78  64  61 SW9       29.86F
CHARLESTON     PTSUNNY   80  62  54 SW14G20   29.87F
PINEVILLE*     PTSUNNY   80  66  62 MISG      29.98F
BECKLEY        MOSUNNY   76  57  51 W13G21    29.97F
BLUEFIELD      PTSUNNY   77  59  53 W8        30.00F
$$

VAZ002-007-008-TNZ017-027-036-066-071-302000
...SOUTHWEST VIRGINIA/EAST TENNESSEE...

CITY           SKY/WX    TMP DP  RH WIND       PRES   REMARKS
WISE*          MOSUNNY   77  61  57 SW12      29.99F
JONESVILLE*      N/A    N/A N/A N/A MISG        N/A
ABINGDON*      PTSUNNY   78  65  64 W7        29.97F
BRISTOL        PTSUNNY   79  65  62 SW3       29.94F
KNOXVILLE      TSTM      73  68  84 MISG      29.91F
OAK RIDGE      LGT RAIN  76  70  82 W6        29.94F
CROSSVILLE     MOSUNNY   78  67  68 VRB7      29.96F
NASHVILLE      CLOUDY    85  69  58 W10G17    29.91F
$$

...KEY TO REMARKS...
VSB - VISIBILITY IN MILES
WCI - WIND CHILL INDEX
HX  - HEAT INDEX

$$


USA.gov is the U.S. government's official web portal to all federal, state and local government web resources and services.